Year,Month,Day,Hour,Minute,Value (Times are PST for insolation in W/m^2)
2021,12,29,00,00,0.00
2021,12,29,00,01,0.00
2021,12,29,00,02,0.00
2021,12,29,00,03,0.00
2021,12,29,00,04,0.00
2021,12,29,00,05,0.00
2021,12,29,00,06,0.00
2021,12,29,00,07,0.00
2021,12,29,00,08,0.00
2021,12,29,00,09,0.00
2021,12,29,00,10,0.00
2021,12,29,00,11,0.00
2021,12,29,00,12,0.00
2021,12,29,00,13,0.00
2021,12,29,00,14,0.00
2021,12,29,00,15,0.00
2021,12,29,00,16,0.00
2021,12,29,00,17,0.00
2021,12,29,00,18,0.00
2021,12,29,00,19,0.00
2021,12,29,00,20,0.00
2021,12,29,00,21,0.00
2021,12,29,00,22,0.00
2021,12,29,00,23,0.00
2021,12,29,00,24,0.00
2021,12,29,00,25,0.00
2021,12,29,00,26,0.00
2021,12,29,00,27,0.00
2021,12,29,00,28,0.00
2021,12,29,00,29,0.00
2021,12,29,00,30,0.00
2021,12,29,00,31,0.00
2021,12,29,00,32,0.00
2021,12,29,00,33,0.00
2021,12,29,00,34,0.00
2021,12,29,00,35,0.00
2021,12,29,00,36,0.00
2021,12,29,00,37,0.00
2021,12,29,00,38,0.00
2021,12,29,00,39,0.00
2021,12,29,00,40,0.00
2021,12,29,00,41,0.00
2021,12,29,00,42,0.00
2021,12,29,00,43,0.00
2021,12,29,00,44,0.00
2021,12,29,00,45,0.00
2021,12,29,00,46,0.00
2021,12,29,00,47,0.00
2021,12,29,00,48,0.00
2021,12,29,00,49,0.00
2021,12,29,00,50,0.00
2021,12,29,00,51,0.00
2021,12,29,00,52,0.00
2021,12,29,00,53,0.00
2021,12,29,00,54,0.00
2021,12,29,00,55,0.00
2021,12,29,00,56,0.00
2021,12,29,00,57,0.00
2021,12,29,00,58,0.00
2021,12,29,00,59,0.00
2021,12,29,01,00,0.00
2021,12,29,01,01,0.00
2021,12,29,01,02,0.00
2021,12,29,01,03,0.00
2021,12,29,01,04,0.00
2021,12,29,01,05,0.00
2021,12,29,01,06,0.00
2021,12,29,01,07,0.00
2021,12,29,01,08,0.00
2021,12,29,01,09,0.00
2021,12,29,01,10,0.00
2021,12,29,01,11,0.00
2021,12,29,01,12,0.00
2021,12,29,01,13,0.00
2021,12,29,01,14,0.00
2021,12,29,01,15,0.00
2021,12,29,01,16,0.00
2021,12,29,01,17,0.00
2021,12,29,01,18,0.00
2021,12,29,01,19,0.00
2021,12,29,01,20,0.00
2021,12,29,01,21,0.00
2021,12,29,01,22,0.00
2021,12,29,01,23,0.00
2021,12,29,01,24,0.00
2021,12,29,01,25,0.00
2021,12,29,01,26,0.00
2021,12,29,01,27,0.00
2021,12,29,01,28,0.00
2021,12,29,01,29,0.00
2021,12,29,01,30,0.00
2021,12,29,01,31,0.00
2021,12,29,01,32,0.00
2021,12,29,01,33,0.00
2021,12,29,01,34,0.00
2021,12,29,01,35,0.00
2021,12,29,01,36,0.00
2021,12,29,01,37,0.00
2021,12,29,01,38,0.00
2021,12,29,01,39,0.00
2021,12,29,01,40,0.00
2021,12,29,01,41,0.00
2021,12,29,01,42,0.00
2021,12,29,01,43,0.00
2021,12,29,01,44,0.00
2021,12,29,01,45,0.00
2021,12,29,01,46,0.00
2021,12,29,01,47,0.00
2021,12,29,01,48,0.00
2021,12,29,01,49,0.00
2021,12,29,01,50,0.00
2021,12,29,01,51,0.00
2021,12,29,01,52,0.00
2021,12,29,01,53,0.00
2021,12,29,01,54,0.00
2021,12,29,01,55,0.00
2021,12,29,01,56,0.00
2021,12,29,01,57,0.00
2021,12,29,01,58,0.00
2021,12,29,01,59,0.00
2021,12,29,02,00,0.00
2021,12,29,02,01,0.00
2021,12,29,02,02,0.00
2021,12,29,02,03,0.00
2021,12,29,02,04,0.00
2021,12,29,02,05,0.00
2021,12,29,02,06,0.00
2021,12,29,02,07,0.00
2021,12,29,02,08,0.00
2021,12,29,02,09,0.00
2021,12,29,02,10,0.00
2021,12,29,02,11,0.00
2021,12,29,02,12,0.00
2021,12,29,02,13,0.00
2021,12,29,02,14,0.00
2021,12,29,02,15,0.00
2021,12,29,02,16,0.00
2021,12,29,02,17,0.00
2021,12,29,02,18,0.00
2021,12,29,02,19,0.00
2021,12,29,02,20,0.00
2021,12,29,02,21,0.00
2021,12,29,02,22,0.00
2021,12,29,02,23,0.00
2021,12,29,02,24,0.00
2021,12,29,02,25,0.00
2021,12,29,02,26,0.00
2021,12,29,02,27,0.00
2021,12,29,02,28,0.00
2021,12,29,02,29,0.00
2021,12,29,02,30,0.00
2021,12,29,02,31,0.00
2021,12,29,02,32,0.00
2021,12,29,02,33,0.00
2021,12,29,02,34,0.00
2021,12,29,02,35,0.00
2021,12,29,02,36,0.00
2021,12,29,02,37,0.00
2021,12,29,02,38,0.00
2021,12,29,02,39,0.00
2021,12,29,02,40,0.00
2021,12,29,02,41,0.00
2021,12,29,02,42,0.00
2021,12,29,02,43,0.00
2021,12,29,02,44,0.00
2021,12,29,02,45,0.00
2021,12,29,02,46,0.00
2021,12,29,02,47,0.00
2021,12,29,02,48,0.00
2021,12,29,02,49,0.00
2021,12,29,02,50,0.00
2021,12,29,02,51,0.00
2021,12,29,02,52,0.00
2021,12,29,02,53,0.00
2021,12,29,02,54,0.00
2021,12,29,02,55,0.00
2021,12,29,02,56,0.00
2021,12,29,02,57,0.00
2021,12,29,02,58,0.00
2021,12,29,02,59,0.00
2021,12,29,03,00,0.00
2021,12,29,03,01,0.00
2021,12,29,03,02,0.00
2021,12,29,03,03,0.00
2021,12,29,03,04,0.00
2021,12,29,03,05,0.00
2021,12,29,03,06,0.00
2021,12,29,03,07,0.00
2021,12,29,03,08,0.00
2021,12,29,03,09,0.00
2021,12,29,03,10,0.00
2021,12,29,03,11,0.00
2021,12,29,03,12,0.00
2021,12,29,03,13,0.00
2021,12,29,03,14,0.00
2021,12,29,03,15,0.00
2021,12,29,03,16,0.00
2021,12,29,03,17,0.00
2021,12,29,03,18,0.00
2021,12,29,03,19,0.00
2021,12,29,03,20,0.00
2021,12,29,03,21,0.00
2021,12,29,03,22,0.00
2021,12,29,03,23,0.00
2021,12,29,03,24,0.00
2021,12,29,03,25,0.00
2021,12,29,03,26,0.00
2021,12,29,03,27,0.00
2021,12,29,03,28,0.00
2021,12,29,03,29,0.00
2021,12,29,03,30,0.00
2021,12,29,03,31,0.00
2021,12,29,03,32,0.00
2021,12,29,03,33,0.00
2021,12,29,03,34,0.00
2021,12,29,03,35,0.00
2021,12,29,03,36,0.00
2021,12,29,03,37,0.00
2021,12,29,03,38,0.00
2021,12,29,03,39,0.00
2021,12,29,03,40,0.00
2021,12,29,03,41,0.00
2021,12,29,03,42,0.00
2021,12,29,03,43,0.00
2021,12,29,03,44,0.00
2021,12,29,03,45,0.00
2021,12,29,03,46,0.00
2021,12,29,03,47,0.00
2021,12,29,03,48,0.00
2021,12,29,03,49,0.00
2021,12,29,03,50,0.00
2021,12,29,03,51,0.00
2021,12,29,03,52,0.00
2021,12,29,03,53,0.00
2021,12,29,03,54,0.00
2021,12,29,03,55,0.00
2021,12,29,03,56,0.00
2021,12,29,03,57,0.00
2021,12,29,03,58,0.00
2021,12,29,03,59,0.00
2021,12,29,04,00,0.00
2021,12,29,04,01,0.00
2021,12,29,04,02,0.00
2021,12,29,04,03,0.00
2021,12,29,04,04,0.00
2021,12,29,04,05,0.00
2021,12,29,04,06,0.00
2021,12,29,04,07,0.00
2021,12,29,04,08,0.00
2021,12,29,04,09,0.00
2021,12,29,04,10,0.00
2021,12,29,04,11,0.00
2021,12,29,04,12,0.00
2021,12,29,04,13,0.00
2021,12,29,04,14,0.00
2021,12,29,04,15,0.00
2021,12,29,04,16,0.00
2021,12,29,04,17,0.00
2021,12,29,04,18,0.00
2021,12,29,04,19,0.00
2021,12,29,04,20,0.00
2021,12,29,04,21,0.00
2021,12,29,04,22,0.00
2021,12,29,04,23,0.00
2021,12,29,04,24,0.00
2021,12,29,04,25,0.00
2021,12,29,04,26,0.00
2021,12,29,04,27,0.00
2021,12,29,04,28,0.00
2021,12,29,04,29,0.00
2021,12,29,04,30,0.00
2021,12,29,04,31,0.00
2021,12,29,04,32,0.00
2021,12,29,04,33,0.00
2021,12,29,04,34,0.00
2021,12,29,04,35,0.00
2021,12,29,04,36,0.00
2021,12,29,04,37,0.00
2021,12,29,04,38,0.00
2021,12,29,04,39,0.00
2021,12,29,04,40,0.00
2021,12,29,04,41,0.00
2021,12,29,04,42,0.00
2021,12,29,04,43,0.00
2021,12,29,04,44,0.00
2021,12,29,04,45,0.00
2021,12,29,04,46,0.00
2021,12,29,04,47,0.00
2021,12,29,04,48,0.00
2021,12,29,04,49,0.00
2021,12,29,04,50,0.00
2021,12,29,04,51,0.00
2021,12,29,04,52,0.00
2021,12,29,04,53,0.00
2021,12,29,04,54,0.00
2021,12,29,04,55,0.00
2021,12,29,04,56,0.00
2021,12,29,04,57,0.00
2021,12,29,04,58,0.00
2021,12,29,04,59,0.00
2021,12,29,05,00,0.00
2021,12,29,05,01,0.00
2021,12,29,05,02,0.00
2021,12,29,05,03,0.00
2021,12,29,05,04,0.00
2021,12,29,05,05,0.00
2021,12,29,05,06,0.00
2021,12,29,05,07,0.00
2021,12,29,05,08,0.00
2021,12,29,05,09,0.00
2021,12,29,05,10,0.00
2021,12,29,05,11,0.00
2021,12,29,05,12,0.00
2021,12,29,05,13,0.00
2021,12,29,05,14,0.00
2021,12,29,05,15,0.00
2021,12,29,05,16,0.00
2021,12,29,05,17,0.00
2021,12,29,05,18,0.00
2021,12,29,05,19,0.00
2021,12,29,05,20,0.00
2021,12,29,05,21,0.00
2021,12,29,05,22,0.00
2021,12,29,05,23,0.00
2021,12,29,05,24,0.00
2021,12,29,05,25,0.00
2021,12,29,05,26,0.00
2021,12,29,05,27,0.00
2021,12,29,05,28,0.00
2021,12,29,05,29,0.00
2021,12,29,05,30,0.00
2021,12,29,05,31,0.00
2021,12,29,05,32,0.00
2021,12,29,05,33,0.00
2021,12,29,05,34,0.00
2021,12,29,05,35,0.00
2021,12,29,05,36,0.00
2021,12,29,05,37,0.00
2021,12,29,05,38,0.00
2021,12,29,05,39,0.00
2021,12,29,05,40,0.00
2021,12,29,05,41,0.00
2021,12,29,05,42,0.00
2021,12,29,05,43,0.00
2021,12,29,05,44,0.00
2021,12,29,05,45,0.00
2021,12,29,05,46,0.00
2021,12,29,05,47,0.00
2021,12,29,05,48,0.00
2021,12,29,05,49,0.00
2021,12,29,05,50,0.00
2021,12,29,05,51,0.00
2021,12,29,05,52,0.00
2021,12,29,05,53,0.00
2021,12,29,05,54,0.00
2021,12,29,05,55,0.00
2021,12,29,05,56,0.00
2021,12,29,05,57,0.00
2021,12,29,05,58,0.00
2021,12,29,05,59,0.00
2021,12,29,06,00,0.00
2021,12,29,06,01,0.00
2021,12,29,06,02,0.00
2021,12,29,06,03,0.00
2021,12,29,06,04,0.00
2021,12,29,06,05,0.00
2021,12,29,06,06,0.00
2021,12,29,06,07,0.00
2021,12,29,06,08,0.00
2021,12,29,06,09,0.00
2021,12,29,06,10,0.00
2021,12,29,06,11,0.00
2021,12,29,06,12,0.00
2021,12,29,06,13,0.00
2021,12,29,06,14,0.00
2021,12,29,06,15,0.00
2021,12,29,06,16,0.00
2021,12,29,06,17,0.00
2021,12,29,06,18,0.00
2021,12,29,06,19,0.00
2021,12,29,06,20,0.00
2021,12,29,06,21,0.00
2021,12,29,06,22,0.00
2021,12,29,06,23,0.00
2021,12,29,06,24,0.00
2021,12,29,06,25,0.00
2021,12,29,06,26,0.00
2021,12,29,06,27,0.00
2021,12,29,06,28,0.00
2021,12,29,06,29,0.00
2021,12,29,06,30,0.00
2021,12,29,06,31,0.00
2021,12,29,06,32,0.00
2021,12,29,06,33,0.00
2021,12,29,06,34,0.00
2021,12,29,06,35,0.00
2021,12,29,06,36,0.00
2021,12,29,06,37,0.00
2021,12,29,06,38,0.00
2021,12,29,06,39,0.00
2021,12,29,06,40,0.00
2021,12,29,06,41,0.00
2021,12,29,06,42,0.00
2021,12,29,06,43,0.00
2021,12,29,06,44,0.00
2021,12,29,06,45,0.00
2021,12,29,06,46,0.00
2021,12,29,06,47,0.00
2021,12,29,06,48,0.00
2021,12,29,06,49,0.00
2021,12,29,06,50,0.00
2021,12,29,06,51,0.00
2021,12,29,06,52,0.00
2021,12,29,06,53,0.00
2021,12,29,06,54,0.00
2021,12,29,06,55,0.00
2021,12,29,06,56,0.00
2021,12,29,06,57,0.00
2021,12,29,06,58,0.00
2021,12,29,06,59,0.00
2021,12,29,07,00,0.00
2021,12,29,07,01,0.00
2021,12,29,07,02,0.00
2021,12,29,07,03,0.00
2021,12,29,07,04,0.00
2021,12,29,07,05,0.00
2021,12,29,07,06,0.00
2021,12,29,07,07,0.00
2021,12,29,07,08,0.00
2021,12,29,07,09,0.00
2021,12,29,07,10,0.00
2021,12,29,07,11,0.00
2021,12,29,07,12,0.00
2021,12,29,07,13,0.00
2021,12,29,07,14,0.00
2021,12,29,07,15,0.00
2021,12,29,07,16,0.00
2021,12,29,07,17,0.00
2021,12,29,07,18,0.00
2021,12,29,07,19,0.00
2021,12,29,07,20,0.00
2021,12,29,07,21,0.00
2021,12,29,07,22,0.00
2021,12,29,07,23,0.00
2021,12,29,07,24,0.00
2021,12,29,07,25,0.00
2021,12,29,07,26,0.00
2021,12,29,07,27,0.00
2021,12,29,07,28,0.00
2021,12,29,07,29,0.00
2021,12,29,07,30,0.00
2021,12,29,07,31,0.00
2021,12,29,07,32,0.00
2021,12,29,07,33,0.00
2021,12,29,07,34,0.00
2021,12,29,07,35,0.00
2021,12,29,07,36,0.00
2021,12,29,07,37,0.00
2021,12,29,07,38,0.00
2021,12,29,07,39,0.00
2021,12,29,07,40,0.00
2021,12,29,07,41,0.00
2021,12,29,07,42,0.00
2021,12,29,07,43,0.00
2021,12,29,07,44,0.00
2021,12,29,07,45,0.00
2021,12,29,07,46,0.00
2021,12,29,07,47,0.00
2021,12,29,07,48,0.00
2021,12,29,07,49,0.00
2021,12,29,07,50,0.00
2021,12,29,07,51,0.00
2021,12,29,07,52,0.00
2021,12,29,07,53,0.00
2021,12,29,07,54,0.00
2021,12,29,07,55,0.00
2021,12,29,07,56,0.00
2021,12,29,07,57,0.00
2021,12,29,07,58,0.00
2021,12,29,07,59,0.00
2021,12,29,08,00,0.00
2021,12,29,08,01,0.00
2021,12,29,08,02,0.00
2021,12,29,08,03,0.00
2021,12,29,08,04,0.00
2021,12,29,08,05,0.00
2021,12,29,08,06,0.00
2021,12,29,08,07,0.00
2021,12,29,08,08,0.00
2021,12,29,08,09,0.00
2021,12,29,08,10,0.00
2021,12,29,08,11,0.00
2021,12,29,08,12,0.00
2021,12,29,08,13,0.00
2021,12,29,08,14,0.00
2021,12,29,08,15,0.00
2021,12,29,08,16,0.00
2021,12,29,08,17,0.00
2021,12,29,08,18,2.40
2021,12,29,08,19,5.00
2021,12,29,08,20,5.00
2021,12,29,08,21,5.00
2021,12,29,08,22,5.00
2021,12,29,08,23,5.00
2021,12,29,08,24,5.00
2021,12,29,08,25,6.00
2021,12,29,08,26,7.00
2021,12,29,08,27,7.00
2021,12,29,08,28,7.00
2021,12,29,08,29,9.00
2021,12,29,08,30,9.50
2021,12,29,08,31,11.00
2021,12,29,08,32,11.00
2021,12,29,08,33,11.60
2021,12,29,08,34,12.00
2021,12,29,08,35,12.00
2021,12,29,08,36,14.00
2021,12,29,08,37,14.00
2021,12,29,08,38,14.00
2021,12,29,08,39,14.00
2021,12,29,08,40,15.30
2021,12,29,08,41,16.00
2021,12,29,08,42,16.00
2021,12,29,08,43,18.00
2021,12,29,08,44,18.20
2021,12,29,08,45,17.90
2021,12,29,08,46,16.00
2021,12,29,08,47,16.00
2021,12,29,08,48,17.50
2021,12,29,08,49,18.00
2021,12,29,08,50,18.00
2021,12,29,08,51,18.00
2021,12,29,08,52,18.00
2021,12,29,08,53,18.00
2021,12,29,08,54,16.80
2021,12,29,08,55,16.00
2021,12,29,08,56,17.80
2021,12,29,08,57,18.00
2021,12,29,08,58,18.00
2021,12,29,08,59,18.00
2021,12,29,09,00,18.00
2021,12,29,09,01,18.60
2021,12,29,09,02,20.50
2021,12,29,09,03,27.20
2021,12,29,09,04,47.20
2021,12,29,09,05,53.90
2021,12,29,09,06,42.40
2021,12,29,09,07,35.00
2021,12,29,09,08,28.60
2021,12,29,09,09,22.10
2021,12,29,09,10,21.00
2021,12,29,09,11,19.00
2021,12,29,09,12,19.00
2021,12,29,09,13,18.70
2021,12,29,09,14,19.50
2021,12,29,09,15,22.20
2021,12,29,09,16,24.50
2021,12,29,09,17,21.60
2021,12,29,09,18,19.00
2021,12,29,09,19,18.80
2021,12,29,09,20,18.00
2021,12,29,09,21,18.00
2021,12,29,09,22,18.00
2021,12,29,09,23,18.00
2021,12,29,09,24,18.00
2021,12,29,09,25,18.00
2021,12,29,09,26,18.00
2021,12,29,09,27,18.00
2021,12,29,09,28,18.00
2021,12,29,09,29,18.00
2021,12,29,09,30,18.70
2021,12,29,09,31,19.00
2021,12,29,09,32,19.20
2021,12,29,09,33,21.00
2021,12,29,09,34,21.80
2021,12,29,09,35,24.00
2021,12,29,09,36,25.00
2021,12,29,09,37,25.70
2021,12,29,09,38,26.00
2021,12,29,09,39,26.00
2021,12,29,09,40,26.00
2021,12,29,09,41,26.00
2021,12,29,09,42,26.00
2021,12,29,09,43,26.00
2021,12,29,09,44,26.00
2021,12,29,09,45,25.10
2021,12,29,09,46,24.80
2021,12,29,09,47,22.50
2021,12,29,09,48,21.00
2021,12,29,09,49,21.00
2021,12,29,09,50,21.00
2021,12,29,09,51,21.00
2021,12,29,09,52,21.00
2021,12,29,09,53,23.00
2021,12,29,09,54,23.00
2021,12,29,09,55,23.00
2021,12,29,09,56,23.00
2021,12,29,09,57,23.00
2021,12,29,09,58,23.00
2021,12,29,09,59,23.00
2021,12,29,10,00,20.80
2021,12,29,10,01,19.00
2021,12,29,10,02,19.00
2021,12,29,10,03,20.00
2021,12,29,10,04,22.30
2021,12,29,10,05,24.50
2021,12,29,10,06,25.90
2021,12,29,10,07,26.20
2021,12,29,10,08,28.50
2021,12,29,10,09,30.00
2021,12,29,10,10,31.00
2021,12,29,10,11,32.60
2021,12,29,10,12,34.50
2021,12,29,10,13,35.00
2021,12,29,10,14,35.00
2021,12,29,10,15,34.50
2021,12,29,10,16,31.80
2021,12,29,10,17,29.00
2021,12,29,10,18,26.20
2021,12,29,10,19,23.50
2021,12,29,10,20,21.20
2021,12,29,10,21,21.00
2021,12,29,10,22,21.00
2021,12,29,10,23,21.80
2021,12,29,10,24,23.00
2021,12,29,10,25,24.20
2021,12,29,10,26,25.00
2021,12,29,10,27,27.60
2021,12,29,10,28,30.30
2021,12,29,10,29,34.10
2021,12,29,10,30,38.80
2021,12,29,10,31,43.00
2021,12,29,10,32,45.90
2021,12,29,10,33,47.00
2021,12,29,10,34,46.20
2021,12,29,10,35,43.50
2021,12,29,10,36,40.00
2021,12,29,10,37,38.30
2021,12,29,10,38,33.50
2021,12,29,10,39,30.80
2021,12,29,10,40,30.00
2021,12,29,10,41,28.30
2021,12,29,10,42,28.00
2021,12,29,10,43,28.00
2021,12,29,10,44,28.00
2021,12,29,10,45,28.00
2021,12,29,10,46,28.00
2021,12,29,10,47,28.00
2021,12,29,10,48,28.00
2021,12,29,10,49,26.00
2021,12,29,10,50,26.00
2021,12,29,10,51,26.70
2021,12,29,10,52,29.00
2021,12,29,10,53,31.20
2021,12,29,10,54,32.80
2021,12,29,10,55,33.00
2021,12,29,10,56,35.20
2021,12,29,10,57,37.00
2021,12,29,10,58,36.30
2021,12,29,10,59,35.00
2021,12,29,11,00,35.00
2021,12,29,11,01,33.50
2021,12,29,11,02,33.00
2021,12,29,11,03,33.00
2021,12,29,11,04,32.80
2021,12,29,11,05,31.30
2021,12,29,11,06,29.10
2021,12,29,11,07,26.20
2021,12,29,11,08,22.10
2021,12,29,11,09,19.20
2021,12,29,11,10,19.20
2021,12,29,11,11,21.50
2021,12,29,11,12,24.20
2021,12,29,11,13,27.00
2021,12,29,11,14,30.60
2021,12,29,11,15,34.30
2021,12,29,11,16,38.40
2021,12,29,11,17,40.20
2021,12,29,11,18,42.50
2021,12,29,11,19,44.70
2021,12,29,11,20,46.50
2021,12,29,11,21,48.20
2021,12,29,11,22,49.00
2021,12,29,11,23,50.70
2021,12,29,11,24,51.00
2021,12,29,11,25,50.50
2021,12,29,11,26,49.00
2021,12,29,11,27,48.00
2021,12,29,11,28,47.00
2021,12,29,11,29,47.00
2021,12,29,11,30,47.00
2021,12,29,11,31,47.00
2021,12,29,11,32,46.30
2021,12,29,11,33,42.50
2021,12,29,11,34,37.60
2021,12,29,11,35,33.80
2021,12,29,11,36,32.30
2021,12,29,11,37,32.00
2021,12,29,11,38,33.20
2021,12,29,11,39,35.50
2021,12,29,11,40,37.80
2021,12,29,11,41,39.50
2021,12,29,11,42,41.20
2021,12,29,11,43,42.00
2021,12,29,11,44,40.20
2021,12,29,11,45,39.90
2021,12,29,11,46,39.00
2021,12,29,11,47,39.00
2021,12,29,11,48,38.00
2021,12,29,11,49,37.00
2021,12,29,11,50,35.50
2021,12,29,11,51,35.00
2021,12,29,11,52,35.20
2021,12,29,11,53,37.50
2021,12,29,11,54,40.00
2021,12,29,11,55,44.50
2021,12,29,11,56,49.50
2021,12,29,11,57,53.30
2021,12,29,11,58,57.40
2021,12,29,11,59,60.20
2021,12,29,12,00,61.50
2021,12,29,12,01,59.30
2021,12,29,12,02,57.00
2021,12,29,12,03,54.80
2021,12,29,12,04,51.80
2021,12,29,12,05,49.30
2021,12,29,12,06,46.70
2021,12,29,12,07,44.00
2021,12,29,12,08,43.30
2021,12,29,12,09,42.00
2021,12,29,12,10,40.80
2021,12,29,12,11,39.20
2021,12,29,12,12,37.30
2021,12,29,12,13,35.00
2021,12,29,12,14,35.00
2021,12,29,12,15,34.30
2021,12,29,12,16,33.00
2021,12,29,12,17,32.40
2021,12,29,12,18,30.50
2021,12,29,12,19,28.30
2021,12,29,12,20,27.80
2021,12,29,12,21,26.50
2021,12,29,12,22,28.00
2021,12,29,12,23,28.00
2021,12,29,12,24,29.20
2021,12,29,12,25,31.50
2021,12,29,12,26,34.60
2021,12,29,12,27,37.20
2021,12,29,12,28,39.00
2021,12,29,12,29,39.00
2021,12,29,12,30,39.00
2021,12,29,12,31,39.00
2021,12,29,12,32,39.80
2021,12,29,12,33,41.70
2021,12,29,12,34,44.00
2021,12,29,12,35,44.50
2021,12,29,12,36,46.00
2021,12,29,12,37,44.00
2021,12,29,12,38,42.00
2021,12,29,12,39,43.50
2021,12,29,12,40,45.70
2021,12,29,12,41,51.80
2021,12,29,12,42,61.00
2021,12,29,12,43,65.80
2021,12,29,12,44,54.50
2021,12,29,12,45,47.80
2021,12,29,12,46,46.30
2021,12,29,12,47,44.30
2021,12,29,12,48,42.00
2021,12,29,12,49,42.00
2021,12,29,12,50,42.00
2021,12,29,12,51,41.10
2021,12,29,12,52,38.20
2021,12,29,12,53,35.50
2021,12,29,12,54,32.40
2021,12,29,12,55,29.80
2021,12,29,12,56,28.00
2021,12,29,12,57,28.70
2021,12,29,12,58,32.30
2021,12,29,12,59,39.30
2021,12,29,13,00,40.60
2021,12,29,13,01,43.40
2021,12,29,13,02,52.00
2021,12,29,13,03,67.60
2021,12,29,13,04,80.60
2021,12,29,13,05,76.50
2021,12,29,13,06,83.60
2021,12,29,13,07,94.80
2021,12,29,13,08,102.90
2021,12,29,13,09,103.80
2021,12,29,13,10,102.00
2021,12,29,13,11,94.40
2021,12,29,13,12,75.50
2021,12,29,13,13,66.90
2021,12,29,13,14,63.50
2021,12,29,13,15,70.60
2021,12,29,13,16,100.80
2021,12,29,13,17,67.30
2021,12,29,13,18,63.70
2021,12,29,13,19,67.00
2021,12,29,13,20,68.20
2021,12,29,13,21,66.10
2021,12,29,13,22,62.50
2021,12,29,13,23,60.20
2021,12,29,13,24,62.00
2021,12,29,13,25,62.00
2021,12,29,13,26,64.50
2021,12,29,13,27,72.40
2021,12,29,13,28,64.30
2021,12,29,13,29,58.30
2021,12,29,13,30,53.90
2021,12,29,13,31,52.00
2021,12,29,13,32,47.30
2021,12,29,13,33,43.00
2021,12,29,13,34,42.00
2021,12,29,13,35,40.50
2021,12,29,13,36,40.00
2021,12,29,13,37,41.30
2021,12,29,13,38,52.70
2021,12,29,13,39,57.30
2021,12,29,13,40,51.50
2021,12,29,13,41,47.00
2021,12,29,13,42,44.70
2021,12,29,13,43,42.30
2021,12,29,13,44,42.00
2021,12,29,13,45,41.50
2021,12,29,13,46,38.90
2021,12,29,13,47,36.10
2021,12,29,13,48,33.80
2021,12,29,13,49,33.00
2021,12,29,13,50,33.00
2021,12,29,13,51,33.00
2021,12,29,13,52,33.50
2021,12,29,13,53,36.40
2021,12,29,13,54,39.00
2021,12,29,13,55,39.00
2021,12,29,13,56,37.60
2021,12,29,13,57,38.70
2021,12,29,13,58,39.10
2021,12,29,13,59,40.50
2021,12,29,14,00,43.40
2021,12,29,14,01,47.40
2021,12,29,14,02,50.20
2021,12,29,14,03,51.00
2021,12,29,14,04,47.60
2021,12,29,14,05,45.80
2021,12,29,14,06,43.00
2021,12,29,14,07,39.00
2021,12,29,14,08,36.00
2021,12,29,14,09,35.00
2021,12,29,14,10,33.50
2021,12,29,14,11,34.70
2021,12,29,14,12,35.00
2021,12,29,14,13,35.00
2021,12,29,14,14,35.00
2021,12,29,14,15,35.00
2021,12,29,14,16,36.20
2021,12,29,14,17,38.50
2021,12,29,14,18,39.80
2021,12,29,14,19,41.80
2021,12,29,14,20,39.80
2021,12,29,14,21,38.30
2021,12,29,14,22,36.00
2021,12,29,14,23,33.80
2021,12,29,14,24,32.30
2021,12,29,14,25,30.30
2021,12,29,14,26,29.50
2021,12,29,14,27,26.00
2021,12,29,14,28,26.00
2021,12,29,14,29,25.50
2021,12,29,14,30,22.50
2021,12,29,14,31,19.50
2021,12,29,14,32,16.30
2021,12,29,14,33,13.80
2021,12,29,14,34,12.00
2021,12,29,14,35,11.70
2021,12,29,14,36,11.00
2021,12,29,14,37,11.00
2021,12,29,14,38,11.00
2021,12,29,14,39,11.00
2021,12,29,14,40,11.00
2021,12,29,14,41,11.00
2021,12,29,14,42,10.30
2021,12,29,14,43,8.00
2021,12,29,14,44,7.00
2021,12,29,14,45,7.00
2021,12,29,14,46,7.00
2021,12,29,14,47,7.00
2021,12,29,14,48,7.00
2021,12,29,14,49,7.80
2021,12,29,14,50,9.00
2021,12,29,14,51,9.00
2021,12,29,14,52,7.50
2021,12,29,14,53,7.00
2021,12,29,14,54,7.00
2021,12,29,14,55,6.50
2021,12,29,14,56,5.00
2021,12,29,14,57,6.00
2021,12,29,14,58,7.00
2021,12,29,14,59,7.00
2021,12,29,15,00,7.00
2021,12,29,15,01,6.80
2021,12,29,15,02,5.00
2021,12,29,15,03,5.00
2021,12,29,15,04,5.00
2021,12,29,15,05,5.00
2021,12,29,15,06,5.00
2021,12,29,15,07,5.00
2021,12,29,15,08,5.00
2021,12,29,15,09,5.00
2021,12,29,15,10,5.00
2021,12,29,15,11,5.00
2021,12,29,15,12,5.00
2021,12,29,15,13,5.00
2021,12,29,15,14,5.00
2021,12,29,15,15,5.00
2021,12,29,15,16,5.00
2021,12,29,15,17,5.00
2021,12,29,15,18,5.00
2021,12,29,15,19,2.00
2021,12,29,15,20,0.00
2021,12,29,15,21,0.00
2021,12,29,15,22,0.00
2021,12,29,15,23,0.00
2021,12,29,15,24,0.00
2021,12,29,15,25,0.00
2021,12,29,15,26,0.00
2021,12,29,15,27,0.00
2021,12,29,15,28,0.00
2021,12,29,15,29,0.00
2021,12,29,15,30,0.00
2021,12,29,15,31,0.00
2021,12,29,15,32,0.00
2021,12,29,15,33,0.00
2021,12,29,15,34,0.00
2021,12,29,15,35,0.00
2021,12,29,15,36,0.00
2021,12,29,15,37,0.00
2021,12,29,15,38,0.00
2021,12,29,15,39,0.00
2021,12,29,15,40,0.00
2021,12,29,15,41,0.00
2021,12,29,15,42,0.00
2021,12,29,15,43,0.00
2021,12,29,15,44,0.00
2021,12,29,15,45,0.00
2021,12,29,15,46,0.00
2021,12,29,15,47,0.00
2021,12,29,15,48,0.00
2021,12,29,15,49,0.00
2021,12,29,15,50,0.00
2021,12,29,15,51,0.00
2021,12,29,15,52,0.00
2021,12,29,15,53,0.00
2021,12,29,15,54,0.00
2021,12,29,15,55,0.00
2021,12,29,15,56,0.00
2021,12,29,15,57,0.00
2021,12,29,15,58,0.00
2021,12,29,15,59,0.00
2021,12,29,16,00,0.00
2021,12,29,16,01,0.00
2021,12,29,16,02,0.00
2021,12,29,16,03,0.00
2021,12,29,16,04,0.00
2021,12,29,16,05,0.00
2021,12,29,16,06,0.00
2021,12,29,16,07,0.00
2021,12,29,16,08,0.00
2021,12,29,16,09,0.00
2021,12,29,16,10,0.00
2021,12,29,16,11,0.00
2021,12,29,16,12,0.00
2021,12,29,16,13,0.00
2021,12,29,16,14,0.00
2021,12,29,16,15,0.00
2021,12,29,16,16,0.00
2021,12,29,16,17,0.00
2021,12,29,16,18,0.00
2021,12,29,16,19,0.00
2021,12,29,16,20,0.00
2021,12,29,16,21,0.00
2021,12,29,16,22,0.00
2021,12,29,16,23,0.00
2021,12,29,16,24,0.00
2021,12,29,16,25,0.00
2021,12,29,16,26,0.00
2021,12,29,16,27,0.00
2021,12,29,16,28,0.00
2021,12,29,16,29,0.00
2021,12,29,16,30,0.00
2021,12,29,16,31,0.00
2021,12,29,16,32,0.00
2021,12,29,16,33,0.00
2021,12,29,16,34,0.00
2021,12,29,16,35,0.00
2021,12,29,16,36,0.00
2021,12,29,16,37,0.00
2021,12,29,16,38,0.00
2021,12,29,16,39,0.00
2021,12,29,16,40,0.00
2021,12,29,16,41,0.00
2021,12,29,16,42,0.00
2021,12,29,16,43,0.00
2021,12,29,16,44,0.00
2021,12,29,16,45,0.00
2021,12,29,16,46,0.00
2021,12,29,16,47,0.00
2021,12,29,16,48,0.00
2021,12,29,16,49,0.00
2021,12,29,16,50,0.00
2021,12,29,16,51,0.00
2021,12,29,16,52,0.00
2021,12,29,16,53,0.00
2021,12,29,16,54,0.00
2021,12,29,16,55,0.00
2021,12,29,16,56,0.00
2021,12,29,16,57,0.00
2021,12,29,16,58,0.00
2021,12,29,16,59,0.00
2021,12,29,17,00,0.00
2021,12,29,17,01,0.00
2021,12,29,17,02,0.00
2021,12,29,17,03,0.00
2021,12,29,17,04,0.00
2021,12,29,17,05,0.00
2021,12,29,17,06,0.00
2021,12,29,17,07,0.00
2021,12,29,17,08,0.00
2021,12,29,17,09,0.00
2021,12,29,17,10,0.00
2021,12,29,17,11,0.00
2021,12,29,17,12,0.00
2021,12,29,17,13,0.00
2021,12,29,17,14,0.00
2021,12,29,17,15,0.00
2021,12,29,17,16,0.00
2021,12,29,17,17,0.00
2021,12,29,17,18,0.00
2021,12,29,17,19,0.00
2021,12,29,17,20,0.00
2021,12,29,17,21,0.00
2021,12,29,17,22,0.00
2021,12,29,17,23,0.00
2021,12,29,17,24,0.00
2021,12,29,17,25,0.00
2021,12,29,17,26,0.00
2021,12,29,17,27,0.00
2021,12,29,17,28,0.00
2021,12,29,17,29,0.00
2021,12,29,17,30,0.00
2021,12,29,17,31,0.00
2021,12,29,17,32,0.00
2021,12,29,17,33,0.00
2021,12,29,17,34,0.00
2021,12,29,17,35,0.00
2021,12,29,17,36,0.00
2021,12,29,17,37,0.00
2021,12,29,17,38,0.00
2021,12,29,17,39,0.00
2021,12,29,17,40,0.00
2021,12,29,17,41,0.00
2021,12,29,17,42,0.00
2021,12,29,17,43,0.00
2021,12,29,17,44,0.00
2021,12,29,17,45,0.00
2021,12,29,17,46,0.00
2021,12,29,17,47,0.00
2021,12,29,17,48,0.00
2021,12,29,17,49,0.00